Location: Bad Dürkheim
(49.4618°N, 8.1724°E)
Time: 15:23:08
(UTC+00:00)

Cosmos 1763 Rocket - Pass Details

Date: 14 June 2025
Orbit: 729 x 774 km, 74.0° (Epoch: 19 July)

Event Time Altitude Azimuth Distance (km) Brightness Sun altitude
Rises 22:01:37 0° 338° (NNW) 3,217 8.7 -14.7°
Reaches altitude 10° 22:04:03 10° 342° (NNW) 2,281 7.4 -14.9°
Maximum altitude 22:09:09 60° 63° (ENE) 852 3.7 -15.2°
Enters shadow 22:12:24 22° 137° (SE) 1,592 4.6 -15.3°
